COSMOS 1275 DEB, 13464

Orbit data source: Space-Track

COSMOS 1275 DEB, 13464 is space debris in LEO originally from a launch on Thu, 04 Jun 1981 UTC launched from the Plesetsk Missile And Space Complex (PKMTR). Debris objects in space refer to the collection of defunct objects orbiting the Earth. Examples of debris include non-operational satellites, rocket bodies, and fragments generated from explosions, collisions, or faulty payload assembly.

Loading next visibility...
Identifier
13464, 1981-053FL
Orbit
LEO
Country
Flag of CISCIS
Related business
Manufacturer
Unknown
Mission
Spacecraft
Bus & Motor
Unknown
Mass
Unknown
Launch date (UTC)
1981-06-04 (45 years ago)
Launch vehicle
Unknown
Launch site
Plesetsk Missile And Space Complex (PKMTR)
Object type
Payload
Rocket body
Debris
Shape & HBR
Unknown shape, 0.1 m
Radar Cross Section
Small (<0.1 m²)

Expand to show TLE details & history
Last TLE update: 1 day ago

TLE from 1 day ago
0 COSMOS 1275 DEB
1 13464U 81053FL  26103.31504897  .00003880  00000-0  11670-2 0  9990
2 13464  82.9032 101.9308 0021065 236.4978 187.2111 14.42326833247661
Epoch: 2026-04-13T07:33Z
TLE epoch observation values (Epoch: 2026-04-13T07:33:40.231Z)
Latitude
62.89673°
Longitude
161.0083°
Altitude
776.545 km
Speed
7.464 km/s
True Right ascension
07h 43m 44s
True Declination
62° 45' 26"
Sunlit
Object was in daylight at epoch
Visualization orbit readout
Latitude
Unknown
Longitude
Unknown
Altitude
Unknown
Speed
Unknown
Apparent Right ascension
Unknown
Apparent Declination
Unknown
Sunlit
N/A
Visualization observer readout
Local Sidereal Time
15:18:04
Azimuth
Unknown
Elevation
Unknown
Doppler factor
Unknown
Orbital elements
Apogee altitude
762.89 km
Perigee altitude
732.868 km
Semi-major axis
7,126.016 km
Eccentricity
0.00211
Inclination
82.9032°
RAAN
101.9308°
Arg. of periapsis
236.4978°
True anomaly
187.18088°
Mean anomaly
187.2111°
Eccentric anomaly
187.19598°
Mean motion
3.60805 °/min
Orbital period
99.78 mins
BSTAR
0.001167
Loading maneuver chart data...
Computing Atmospheric mass density...
Loading historical data...
Loading historical data...
Loading historical data...
Loading historical data...
Loading historical data...
Loading historical data...
Loading historical data...

Documentation

Showing up to 5 results
|